This is the latest recevied weather packets stored in our database for station/object W1HVD. If no packets are shown the sender has not sent any weather packets the latest 1 day(s).
| Time | Temp. | Humidity | Pressure | Rain* | Wind** | Luminosity | Snow |
|---|---|---|---|---|---|---|---|
| 1778040389 | 14.44° C | 80% | 1012.2 hPa | 0 mm | 0.89 m/s, 230° | 0 W/m² | - |
| 1778040086 | 14.44° C | 80% | 1012.2 hPa | 0 mm | 1.79 m/s, 178° | 0 W/m² | - |
| 1778039782 | 14.44° C | 80% | 1012.2 hPa | 0 mm | 0.45 m/s, 215° | 0 W/m² | - |
| 1778039479 | 14.44° C | 80% | 1012.3 hPa | 0 mm | 0.89 m/s, 80° | 0 W/m² | - |
| 1778039177 | 14.44° C | 79% | 1012.2 hPa | 0 mm | 1.34 m/s, 237° | 0 W/m² | - |
| 1778038874 | 14.44° C | 79% | 1012 hPa | 0 mm | 0.89 m/s, 202° | 0 W/m² | - |
| 1778038571 | 14.44° C | 78% | 1011.9 hPa | 0 mm | 2.68 m/s, 189° | 0 W/m² | - |
| 1778038268 | 14.44° C | 78% | 1012.3 hPa | 0 mm | 1.34 m/s, 231° | 0 W/m² | - |
| 1778037965 | 14.44° C | 78% | 1012.1 hPa | 0 mm | 1.34 m/s, 150° | 0 W/m² | - |
| 1778037662 | 14.44° C | 78% | 1012.4 hPa | 0 mm | 0.45 m/s, 220° | 0 W/m² | - |
| 1778037359 | 14.44° C | 77% | 1012.1 hPa | 0 mm | 3.13 m/s, 281° | 0 W/m² | - |
| 1778037056 | 15° C | 76% | 1012.1 hPa | 0 mm | 1.79 m/s, 187° | 0 W/m² | - |
| 1778036754 | 15° C | 76% | 1011.9 hPa | 0 mm | 1.79 m/s, 318° | 0 W/m² | - |
| 1778036451 | 15° C | 76% | 1012 hPa | 0 mm | 0.89 m/s, 214° | 0 W/m² | - |
| 1778036148 | 15° C | 76% | 1011.9 hPa | 0 mm | 0.45 m/s, 208° | 0 W/m² | - |
| 1778035844 | 15° C | 75% | 1012 hPa | 0 mm | 1.79 m/s, 222° | 0 W/m² | - |
| 1778035541 | 15° C | 75% | 1012 hPa | 0 mm | 0.89 m/s, 188° | 0 W/m² | - |
| 1778035237 | 15° C | 74% | 1012 hPa | 0 mm | 1.79 m/s, 204° | 0 W/m² | - |
| 1778034933 | 15° C | 74% | 1012.1 hPa | 0 mm | 2.68 m/s, 175° | 0 W/m² | - |
| 1778034635 | 15° C | 74% | 1012.2 hPa | 0 mm | 4.02 m/s, 206° | 0 W/m² | - |
| 1778034329 | 15° C | 74% | 1012.1 hPa | 0 mm | 1.34 m/s, 236° | 0 W/m² | - |
| 1778034026 | 14.44° C | 74% | 1011.9 hPa | 0 mm | 0.89 m/s, 231° | 0 W/m² | - |
| 1778033723 | 14.44° C | 74% | 1012.2 hPa | 0 mm | 0.45 m/s, 186° | 0 W/m² | - |
| 1778033420 | 15° C | 74% | 1012 hPa | 0 mm | 0.45 m/s, 193° | 0 W/m² | - |
| 1778033118 | 15° C | 74% | 1012.1 hPa | 0 mm | 0.45 m/s, 75° | 0 W/m² | - |
* Rain latest hour (hover to see other rain measurements)
** Current wind speed in m/s (hover to see current wind gust speed)